sat.trackr.live / text

‹ back to catalog

STARLINK-35675

NORAD 67188 · 2025-303AB

PAYLOAD ACTIVE UNKNOWN

§ Identity

Operator
Country
US
Launch date
2025-12-17
Launch site
AFETR
Launch vehicle
Mass (kg)
RCS (m²)

Purposes: comms

External: N2YO · Heavens-Above · Gunter

§ Orbital elements

Epoch: 2026-05-24T22:53:31.000128Z

Period
94.27 min
Inclination
42.9992°
Eccentricity
0.0001145
Mean motion
15.27595399 rev/d
Perigee alt
482.2 km
Apogee alt
483.8 km
Semi-major
6,861.1 km
B*
4.7982e-4
RAAN
240.4493°
Arg perigee
285.4793°
Mean anomaly
74.5933°
Rev number
2,439

§ Raw data

STARLINK-356751 67188U 25303AB  26144.95383102  .00012971  00000+0  47982-3 0  99932 67188  42.9992 240.4493 0001145 285.4793  74.5933 15.27595399 24396

JSON: /api/v1/satellites/67188 · /tle

For live sub-satellite position, see the globe view (requires WebGL).

§ Visibility from observer

Set your observer location to see the next 7 days of passes ≥ 10°. The values pass through the URL so the page stays shareable.

No JS? Fill the form by hand. The geolocation button needs JavaScript.